Kalispell, MT

8:22 AM MDT on April 19, 2018 (GMT -0600)
Glacier Park International

Weather History for KGPI - May, 2013

Change the Weather History Date:

Friday, May 17, 2013

  Actual Average Record
Temperature  
Mean Temperature 53 °F 52 °F  
Max Temperature 69 °F 66 °F 86 °F (2006)
Min Temperature 37 °F 39 °F 25 °F (2003)
Degree Days  
Heating Degree Days 12 13  
Month to date heating degree days 198 258  
Since 1 July heating degree days 7103 7669  
Cooling Degree Days 0 0  
Month to date cooling degree days 0 0  
Year to date cooling degree days 0 0  
Growing Degree Days 2 (Base 50)    
Moisture  
Dew Point 42 °F    
Average Humidity 67    
Maximum Humidity 96    
Minimum Humidity 37    
Precipitation  
Precipitation T in 0.06 in 0.68 in (1959)
Month to date precipitation 0.13 0.91  
Year to date precipitation 3.48 5.54  
Snow  
Snow 0.00 in - - ()
Month to date snowfall T  
Year to date snowfall 9.2  
Since 1 July snowfall 18.0  
Snow Depth 0.00 in    
Sea Level Pressure  
Sea Level Pressure 29.90 in    
Wind  
Wind Speed 5 mph (WNW)    
Max Wind Speed 17 mph    
Max Gust Speed 21 mph    
Visibility 10 miles    
Events Rain    
T = Trace of Precipitation, MM = Missing Value Source: NWS Daily Summary

Daily Weather History Graph

Daily Weather History Graph

Search for Another Location

Airport or City:

Astronomy

May. 17, 2013 Rise Set
Actual Time 5:54 AM MDT 9:13 PM MDT
Civil Twilight 5:16 AM MDT 9:51 PM MDT
Nautical Twilight 4:26 AM MDT 10:41 PM MDT
Astronomical Twilight 3:22 AM MDT 11:46 PM MDT
Moon 12:45 PM MDT (5/17) 1:55 AM MDT (5/17)
Length of Visible Light 16h 34m
Length of Day
15h 19m
Waxing Crescent, 46% of the Moon is Illuminated
May 17
Waxing Crescent
May 17
First Quarter
May 24
Full
May 31
Last Quarter
Jun 8
New

Hourly Weather History & Observations

Time (MDT) Temp. Windchill Dew Point Humidity Pressure Visibility Wind Dir Wind Speed Gust Speed Precip Events Conditions
12:55 AM 45.0 °F - 42.1 °F 90% 29.91 in 10.0 mi Calm Calm - N/A   Scattered Clouds
1:55 AM 42.1 °F 39.2 °F 41.0 °F 96% 29.91 in 10.0 mi WNW 4.6 mph - N/A   Clear
2:55 AM 41.0 °F 39.0 °F 39.9 °F 96% 29.91 in 10.0 mi WNW 3.5 mph - N/A   Clear
3:55 AM 39.0 °F - 37.9 °F 96% 29.91 in 10.0 mi Calm Calm - N/A   Clear
4:55 AM 39.0 °F 36.8 °F 37.9 °F 96% 29.91 in 10.0 mi WNW 3.5 mph - N/A   Clear
5:55 AM 39.2 °F 35.9 °F 37.4 °F 93% 29.89 in 10.0 mi NW 4.6 mph - N/A   Clear
6:55 AM 42.1 °F 39.2 °F 39.9 °F 92% 29.91 in 10.0 mi NW 4.6 mph - N/A   Clear
7:55 AM 48.0 °F - 43.0 °F 83% 29.90 in 10.0 mi NNW 3.5 mph - N/A   Clear
8:55 AM 52.0 °F - 43.0 °F 71% 29.90 in 10.0 mi North 8.1 mph - N/A   Clear
9:55 AM 55.0 °F - 43.0 °F 64% 29.89 in 10.0 mi North 5.8 mph - N/A   Clear
10:55 AM 59.0 °F - 43.0 °F 55% 29.88 in 10.0 mi NNE 4.6 mph - N/A   Clear
11:55 AM 62.1 °F - 43.0 °F 50% 29.87 in 10.0 mi NNW 5.8 mph - N/A   Clear
12:55 PM 64.9 °F - 41.0 °F 42% 29.85 in 10.0 mi Calm Calm - N/A   Clear
1:55 PM 66.0 °F - 39.9 °F 38% 29.83 in 10.0 mi Variable 4.6 mph - N/A   Clear
2:55 PM 66.0 °F - 41.0 °F 40% 29.84 in 10.0 mi SSE 15.0 mph - N/A   Mostly Cloudy
3:55 PM 64.0 °F - 43.0 °F 46% 29.86 in 10.0 mi South 12.7 mph - N/A   Clear
4:55 PM 63.0 °F - 41.0 °F 45% 29.87 in 10.0 mi SSE 3.5 mph - N/A   Mostly Cloudy
5:55 PM 62.1 °F - 42.1 °F 48% 29.88 in 10.0 mi SSE 15.0 mph 18.4 mph N/A   Mostly Cloudy
6:14 PM 60.8 °F - 42.8 °F 52% 29.87 in 10.0 mi SSE 15.0 mph 20.7 mph N/A   Mostly Cloudy
6:55 PM 59.0 °F - 42.1 °F 53% 29.89 in 10.0 mi South 13.8 mph - N/A   Overcast
7:55 PM 55.0 °F - 43.0 °F 64% 29.91 in 10.0 mi WSW 9.2 mph - 0.00 in Rain Light Rain
8:55 PM 53.1 °F - 45.0 °F 74% 29.94 in 10.0 mi Calm Calm - 0.00 in Rain Light Rain
9:55 PM 51.1 °F - 46.9 °F 86% 29.96 in 10.0 mi Calm Calm - 0.00 in Rain Light Rain
10:55 PM 50.0 °F - 46.9 °F 89% 29.95 in 10.0 mi Calm Calm - 0.00 in   Overcast
11:55 PM 48.9 °F - 46.9 °F 93% 29.94 in 10.0 mi Calm Calm - N/A   Overcast